Lapse_Rate
7.1 6.8 6.9 6.6 6.5 6.7 6.7 7.1 6.2 5.9 6.5 6.7 6.9 6.9 6.6 6.5 6.2 6.2 6.0 5.9 5.8 5.6 5.8 5.8 5.7 5.9 5.9 6.2 6.2 6.1 6.2 6.1 6.2 6.2 6.2 6.2 6.3 6.3 6.2 6.1 6.1 6.1 6.0
7.5 7.0 6.7 6.6 6.3 6.1 6.8 6.6 5.3 5.9 5.6 6.2 7.0 6.8 6.5 6.6 6.5 6.4 6.1 5.9 6.0 6.0 5.9 5.8 5.9 6.0 6.2 6.2 6.1 6.2 6.1 6.3 6.3 6.2 6.2 6.3 6.4 6.4 6.2 6.0 5.9 5.7 5.8
7.4 7.1 6.6 6.3 6.1 5.9 6.3 6.5 6.1 6.0 5.9 6.3 6.5 6.7 6.7 6.4 6.5 6.2 6.0 6.1 6.1 5.9 5.8 5.9 6.0 6.2 6.2 6.2 6.2 6.2 6.2 6.2 6.2 6.3 6.3 6.4 6.4 6.2 6.0 5.9 5.9 5.9 6.3
6.9 7.1 6.4 6.3 6.1 5.9 6.0 6.5 5.5 5.4 6.0 6.2 6.4 6.9 6.9 6.3 6.2 6.1 6.1 6.1 5.8 5.8 5.9 6.1 6.1 6.1 6.1 6.3 6.2 6.2 6.2 6.1 6.2 6.4 6.3 6.3 6.2 6.1 6.0 6.2 6.6 6.6 6.7
6.9 6.2 6.3 6.1 5.9 5.9 6.1 6.6 5.1 5.5 6.0 5.9 6.3 6.8 6.6 6.1 6.1 6.1 6.1 5.8 5.8 5.9 6.1 6.0 6.1 6.1 6.3 6.3 6.3 6.2 6.2 6.2 6.3 6.4 6.3 6.2 6.2 6.2 6.4 6.5 6.5 6.7 6.8
7.2 5.9 6.0 6.0 5.7 5.7 6.3 6.5 5.3 5.8 5.4 5.6 6.1 7.1 6.4 6.2 6.0 6.0 5.9 6.0 6.0 5.9 6.0 6.0 6.1 6.4 6.4 6.3 6.3 6.3 6.2 6.3 6.3 6.2 6.2 6.3 6.1 6.2 6.3 6.4 6.5 6.9 7.4
6.9 5.6 5.9 5.6 5.9 5.9 6.6 6.4 4.9 5.0 5.1 5.7 6.8 7.0 6.4 6.0 6.0 6.1 6.0 5.9 5.8 5.9 6.0 6.1 6.4 6.4 6.4 6.3 6.2 6.2 6.3 6.3 6.2 6.1 6.1 6.0 6.0 6.2 6.4 6.2 6.5 6.9 6.7
6.6 6.2 5.9 5.1 5.3 6.0 6.5 5.5 4.7 4.4 5.3 6.5 7.1 6.6 6.3 6.1 6.1 6.0 5.9 5.9 6.0 6.0 6.3 6.5 6.4 6.3 6.3 6.1 6.1 6.0 6.1 6.0 5.9 5.8 5.8 5.8 6.0 6.2 6.3 6.5 6.7 6.8 6.5
6.0 5.9 5.3 5.1 5.1 6.7 6.2 5.0 4.7 4.8 6.0 6.8 6.5 6.4 5.9 6.1 6.0 5.8 5.8 6.0 5.9 6.4 6.3 6.3 6.2 6.2 6.1 6.0 6.0 6.0 5.8 5.6 5.6 5.7 5.8 5.9 6.1 6.4 6.8 6.9 7.1 7.2 6.8
5.9 5.6 3.8 5.5 6.1 6.3 6.2 4.4 4.3 5.7 6.5 6.6 6.4 5.9 5.9 5.9 5.7 5.7 5.8 6.0 6.3 6.1 6.3 6.2 6.1 6.1 5.9 6.0 5.9 5.7 5.5 5.5 5.8 6.0 6.1 6.4 6.6 6.7 6.9 7.1 7.0 6.7 6.4
5.1 5.3 4.8 4.7 3.2 3.7 4.4 4.5 5.8 6.7 6.9 6.5 6.1 6.0 5.8 5.7 5.8 5.9 6.2 6.2 6.2 6.3 6.2 6.1 6.1 5.9 6.0 5.9 5.7 5.5 5.6 5.9 6.0 6.2 6.4 6.5 6.5 6.9 7.1 6.9 6.5 6.4 6.2
4.9 4.3 4.5 4.2 4.1 4.1 4.7 5.6 6.4 6.6 6.6 6.3 6.0 6.1 5.9 5.9 6.0 6.2 6.1 6.2 6.1 6.0 6.1 6.0 6.0 6.0 5.7 5.5 5.3 5.5 5.7 6.0 6.2 6.3 6.4 6.5 6.7 7.0 6.8 6.6 6.3 6.1 5.6
4.2 4.3 4.7 4.9 4.8 5.1 5.7 6.5 6.5 6.3 6.1 6.1 6.1 6.0 6.1 6.2 6.2 6.3 6.2 6.2 6.3 6.2 6.0 6.0 6.0 5.6 5.2 5.4 5.6 5.8 6.1 6.3 6.4 6.4 6.5 6.5 6.4 6.5 6.5 6.4 6.3 6.2 5.9
4.6 5.0 5.4 5.4 5.6 5.9 6.0 6.2 6.3 6.2 6.1 6.3 6.3 6.3 6.5 6.6 6.5 6.3 6.4 6.3 6.1 6.0 5.9 5.7 5.4 5.4 5.4 5.7 5.8 6.1 6.4 6.4 6.3 6.3 6.3 6.1 6.1 6.5 6.6 6.5 6.4 6.4 6.4
5.5 5.9 6.0 6.0 6.0 5.9 6.0 5.9 5.8 5.8 5.9 6.1 6.4 6.4 6.3 6.4 6.4 6.4 6.1 6.0 5.9 5.7 5.4 5.1 5.1 5.1 5.3 5.8 6.1 6.4 6.3 6.2 6.2 6.2 6.2 6.4 6.6 6.7 6.5 6.3 6.2 6.3 6.3
6.0 5.9 5.9 5.7 5.5 5.6 5.8 6.1 5.9 6.1 6.3 6.2 6.3 6.2 6.5 6.3 6.1 6.0 5.9 5.7 5.5 5.2 4.8 5.0 5.3 5.4 5.8 6.3 6.4 6.5 6.4 6.4 6.3 6.1 6.1 6.3 6.5 6.6 6.3 6.2 6.1 6.1 6.0
5.8 5.9 6.0 6.0 6.0 6.0 6.2 6.6 6.7 6.3 6.2 6.1 6.1 6.3 6.3 6.1 5.9 5.7 5.5 5.3 5.0 4.8 4.9 5.3 5.5 5.8 6.4 6.5 6.6 6.6 6.6 6.5 6.1 5.9 6.2 6.4 6.3 6.2 6.2 6.1 6.0 6.1 6.0
6.2 6.2 5.7 5.8 6.1 6.0 5.8 5.9 6.0 6.3 6.2 6.3 6.4 6.2 5.9 5.8 5.6 5.3 5.1 4.9 4.9 5.0 5.3 5.6 5.7 6.1 6.5 6.7 6.6 6.5 6.4 6.2 6.1 6.2 6.3 6.3 6.2 6.0 6.1 5.9 5.8 5.9 5.8
5.7 5.7 5.8 5.7 5.2 5.2 5.3 5.6 6.1 6.5 6.3 6.4 6.2 5.9 5.6 5.3 5.1 5.0 5.0 4.9 5.0 5.4 5.4 5.6 5.9 6.1 6.5 6.8 6.6 6.2 6.1 6.1 6.2 6.2 6.0 6.1 6.1 6.0 5.8 5.7 5.5 5.5 5.5
5.1 5.4 5.6 5.1 5.2 5.3 5.5 6.0 6.3 6.2 6.0 5.8 5.6 5.3 5.2 5.0 5.0 4.9 5.0 5.1 5.3 5.5 5.3 5.6 5.8 6.1 6.2 6.0 6.0 5.9 5.9 6.0 6.0 5.9 5.8 5.8 5.8 5.7 5.6 5.5 5.5 5.5 5.3
5.4 5.3 5.2 5.3 5.4 5.9 6.2 5.9 5.8 5.7 5.7 5.6 5.4 5.3 5.2 4.8 4.7 4.9 5.1 5.3 5.4 5.5 5.4 5.6 5.7 5.7 5.5 5.7 5.7 5.7 5.9 5.8 5.7 5.6 5.7 5.6 5.6 5.6 5.6 5.4 5.4 5.3 5.0
5.2 5.1 5.3 5.8 6.0 6.0 5.9 5.9 5.9 5.7 5.5 5.4 5.3 5.1 5.0 4.9 4.7 4.7 5.0 5.3 5.6 5.6 5.4 5.5 5.5 5.3 5.5 5.5 5.6 5.7 5.6 5.5 5.4 5.5 5.6 5.6 5.5 5.5 5.4 5.4 5.3 5.2 5.2
5.6 5.6 5.9 6.1 6.0 6.0 6.0 5.8 5.7 5.4 5.4 5.3 5.3 5.1 4.9 4.6 4.6 5.0 5.3 5.5 5.6 5.6 5.5 5.5 5.4 5.4 5.3 5.4 5.5 5.5 5.5 5.5 5.5 5.5 5.5 5.4 5.4 5.4 5.3 5.4 5.5 5.2 5.1
5.2 6.0 6.2 6.1 5.9 5.8 5.6 5.6 5.5 5.2 5.1 5.1 4.8 4.8 4.8 4.6 5.0 5.5 5.5 5.6 5.6 5.6 5.4 5.3 5.4 5.4 5.4 5.5 5.4 5.4 5.4 5.4 5.3 5.3 5.3 5.2 5.3 5.2 5.1 5.1 5.3 5.1 4.9
6.1 6.1 5.9 5.8 5.6 5.5 5.5 5.3 5.1 5.2 5.1 4.9 4.8 4.8 5.0 5.3 5.4 5.4 5.6 5.7 5.6 5.4 5.4 5.5 5.5 5.5 5.6 5.5 5.4 5.4 5.4 5.3 5.3 5.2 5.2 5.1 5.1 5.0 5.0 5.0 5.0 5.0 4.7
5.8 5.7 5.6 5.6 5.5 5.4 5.2 5.2 5.2 5.1 5.0 5.0 5.1 5.2 5.4 5.8 5.7 5.6 5.6 5.4 5.5 5.5 5.5 5.6 5.6 5.5 5.6 5.6 5.5 5.4 5.4 5.3 5.3 5.3 5.2 5.1 5.1 5.0 4.9 4.9 4.8 4.9 4.6
Wind_Speed
19 19 19 17 17 18 16 16 17 18 18 18 17 16 14 13 12 12 11 12 12 10 9 10 9 6 5 4 4 3 4 3 3 3 2 3 4 5 10 15 16 14 16
16 20 18 19 19 18 17 17 20 19 17 19 18 16 14 12 13 14 14 11 12 11 9 8 8 6 6 6 3 5 5 4 3 2 3 2 3 4 6 7 9 16 15
15 18 18 19 19 19 16 17 18 19 18 17 18 17 13 13 14 14 14 13 12 10 8 9 7 6 6 3 3 4 3 3 3 1 3 2 3 3 5 6 6 5 14
15 19 20 21 20 18 17 21 21 18 20 18 15 16 13 14 15 15 15 14 13 10 9 7 7 7 6 4 5 4 3 4 3 2 3 4 2 4 3 4 9 8 9
18 19 21 19 19 20 19 20 22 21 17 18 18 15 13 13 11 15 15 14 13 11 7 8 7 11 15 11 2 5 4 3 3 3 3 3 3 5 8 4 5 7 10
20 19 20 21 22 22 22 22 21 20 21 20 17 14 12 9 17 21 18 13 11 10 9 7 7 11 10 14 14 14 6 3 4 2 3 2 4 4 3 7 4 8 7
12 18 22 24 25 23 23 24 23 19 19 18 17 15 14 15 23 23 22 12 12 10 8 7 8 6 7 6 11 13 12 13 10 1 2 3 4 6 5 7 9 7 6
14 10 17 28 28 26 23 24 22 19 19 17 17 16 15 13 23 23 21 14 12 10 9 8 7 7 7 7 7 8 8 7 7 5 3 4 3 7 6 4 5 6 6
22 20 18 23 29 30 25 20 21 17 17 17 16 16 15 14 23 21 17 12 12 9 7 7 7 7 9 11 8 8 8 7 14 18 19 19 20 21 18 6 9 9 10
26 22 18 23 21 29 29 18 20 17 17 14 15 12 18 16 20 18 15 10 11 6 6 5 9 7 8 10 7 6 7 6 6 7 7 12 15 16 22 13 8 8 7
19 18 23 25 22 22 25 20 19 18 16 16 14 10 12 14 14 16 13 10 8 6 5 4 4 10 12 11 9 6 5 4 8 6 5 7 8 9 8 15 14 3 9
21 19 21 23 17 18 24 19 19 19 17 14 14 10 8 10 15 13 13 11 8 7 5 3 3 15 14 13 8 11 11 7 4 5 6 7 7 8 10 11 16 14 17
17 17 22 22 20 19 21 19 15 15 14 13 12 12 10 9 8 15 13 12 11 6 3 9 16 15 13 10 13 13 8 5 6 7 7 6 6 7 12 9 13 17 15
20 18 20 21 20 17 13 12 13 12 12 11 11 11 9 8 6 4 5 6 12 10 12 10 9 10 11 6 5 7 6 5 4 3 4 5 6 8 8 8 9 10 9
20 17 17 15 17 16 12 10 10 8 9 12 10 10 11 8 3 6 6 7 7 6 9 7 5 4 4 4 5 6 4 5 7 5 7 8 8 8 9 8 10 9 10
19 14 13 14 13 13 13 13 23 20 19 17 15 12 8 11 10 11 13 14 15 13 7 5 3 3 6 5 4 4 5 9 7 7 6 7 8 9 10 10 10 10 11
19 17 13 14 13 13 12 13 14 14 21 19 18 15 12 12 14 16 17 16 15 11 6 4 4 6 5 4 3 3 5 5 5 6 6 8 8 8 10 9 11 10 12
20 24 13 12 12 12 12 12 11 13 13 9 10 9 14 16 16 16 15 11 7 6 4 5 6 5 4 3 3 4 5 5 6 6 7 7 8 8 9 10 10 11 12
15 12 13 12 12 13 11 11 10 12 11 8 5 8 9 14 17 16 14 6 7 5 6 6 5 4 3 3 4 5 5 5 6 6 6 7 7 7 9 9 10 14 15
13 18 16 12 11 12 11 11 10 10 9 7 6 4 3 8 8 6 5 6 5 5 5 5 4 4 4 5 5 4 4 6 7 6 6 6 7 7 8 9 9 10 11
10 11 15 11 11 11 12 11 10 9 8 7 6 5 9 9 5 5 5 5 5 5 5 4 4 5 3 4 5 4 5 4 5 5 5 6 6 7 8 7 8 8 9
8 10 11 12 11 11 10 9 8 8 7 7 6 6 11 7 5 5 5 6 5 8 11 9 6 6 9 6 5 4 5 5 5 6 6 6 5 6 6 7 8 9 9
10 13 12 11 10 10 8 7 7 7 8 8 8 8 7 5 5 5 6 5 8 11 16 17 11 10 14 14 14 11 5 4 7 9 5 6 6 6 6 6 8 8 9
10 11 11 10 8 8 8 8 7 9 9 8 7 6 6 5 5 6 5 7 11 14 17 16 15 14 13 12 12 12 13 13 13 14 12 6 5 7 6 7 8 9 8
11 11 10 9 9 8 9 8 8 9 8 8 7 5 4 5 5 5 5 9 11 13 14 15 14 13 12 11 12 13 15 17 16 17 17 14 7 8 7 6 8 8 9
10 10 8 7 8 8 7 7 7 7 7 6 6 5 5 5 5 5 6 9 8 11 14 13 12 10 9 9 10 13 15 17 17 18 17 15 7 6 6 7 10 7 9
Wind_Direction
196 190 182 179 176 165 167 166 160 149 145 141 131 128 129 126 122 114 107 104 96 91 81 83 80 74 67 51 55 57 59 73 98 313 285 302 319 325 326 325 326 329 333
193 186 184 173 169 167 166 161 149 141 146 134 130 129 128 127 122 119 112 107 103 96 90 89 76 76 65 56 57 54 57 59 91 349 278 295 297 306 292 308 324 333 333
194 187 179 170 169 163 157 150 140 135 135 130 128 123 128 127 115 108 108 103 95 94 93 87 87 79 60 48 48 51 53 52 51 35 297 293 281 299 318 313 319 313 334
207 186 180 175 166 149 152 142 135 136 132 123 120 115 126 119 116 114 109 103 99 90 82 81 84 78 72 43 45 53 64 50 21 349 297 289 291 301 294 309 340 340 327
206 193 175 166 147 141 145 138 128 134 123 115 109 112 123 121 123 117 111 108 104 95 79 75 66 72 67 61 72 64 59 37 0 350 316 305 321 344 347 320 329 323 326
198 189 165 146 143 138 133 125 115 120 117 110 116 120 120 112 109 116 114 112 104 97 90 71 67 55 47 54 54 55 64 44 357 354 317 333 316 316 308 331 323 344 341
177 166 152 149 136 136 129 119 114 109 106 113 109 112 109 109 104 103 106 104 99 93 90 85 74 54 43 29 37 43 36 37 47 178 320 330 316 330 317 333 337 329 310
106 97 147 137 127 118 112 112 108 109 112 115 112 112 113 112 107 107 106 102 97 94 93 89 87 64 35 40 37 36 25 13 8 19 39 329 327 331 334 305 289 288 298
104 87 117 125 118 111 107 103 108 113 112 110 112 118 120 116 110 107 105 102 97 91 90 87 87 69 48 40 47 36 26 9 8 16 20 7 356 347 355 344 352 345 341
107 106 111 93 109 114 110 119 106 108 109 112 106 117 122 116 110 109 110 109 103 99 79 78 69 74 64 50 57 40 31 350 359 356 358 351 349 349 357 1 345 346 344
103 105 99 89 99 102 111 109 112 112 109 103 107 107 117 122 118 114 110 110 117 107 99 70 47 51 47 43 51 43 33 355 359 360 347 358 354 354 352 346 339 342 342
83 94 100 104 108 104 105 112 111 111 106 106 107 107 103 110 121 113 104 102 110 104 95 79 48 75 70 56 46 40 34 19 10 13 13 5 357 352 338 333 327 333 333
88 103 99 100 103 108 112 115 112 115 113 115 115 107 98 102 106 101 105 101 89 83 97 85 77 79 77 53 41 36 30 29 24 21 12 357 345 329 323 335 343 346 330
108 103 100 103 103 105 106 109 111 114 114 117 117 110 115 105 96 86 77 73 79 83 77 73 80 75 73 60 32 28 27 19 18 6 1 339 342 349 347 344 349 347 347
103 102 96 96 100 100 90 102 107 95 112 123 119 121 117 113 101 100 121 99 95 93 79 66 57 51 56 42 38 23 2 12 20 10 7 2 1 355 351 346 353 347 353
104 99 102 102 100 101 99 86 63 85 87 89 92 101 81 98 112 107 98 97 94 90 71 85 76 74 69 57 39 6 12 24 17 9 1 4 3 355 348 351 357 355 352
105 104 101 102 104 109 108 108 109 77 77 79 87 90 94 115 91 94 95 91 95 87 93 89 81 67 66 61 39 23 24 9 0 10 8 2 358 352 352 353 355 351 353
98 97 99 101 102 100 104 111 116 120 119 100 50 87 80 78 84 99 97 86 73 66 86 83 75 74 74 75 47 34 26 12 14 9 7 1 353 348 352 353 353 348 350
105 109 109 106 105 107 111 116 115 109 103 107 91 58 60 85 91 86 79 98 101 90 85 77 81 92 86 71 51 38 32 14 10 8 3 359 348 348 350 348 348 347 350
91 93 97 103 111 112 109 110 114 109 112 112 105 106 106 96 92 83 74 86 88 92 96 100 91 83 74 60 49 30 32 23 14 7 356 352 344 341 346 342 345 345 355
98 102 112 109 109 117 120 125 124 125 123 109 102 96 100 109 108 91 84 104 114 107 108 108 104 87 76 60 45 32 30 16 8 354 349 345 341 341 339 335 341 341 352
118 114 111 114 117 118 120 119 118 113 102 99 97 101 95 87 94 119 118 111 109 112 118 104 80 83 76 67 48 33 22 13 3 356 346 342 337 334 339 340 348 348 352
112 109 109 110 113 111 105 104 103 106 107 108 106 107 111 128 131 122 116 116 119 113 109 104 106 84 72 61 50 41 29 5 347 346 338 340 341 344 340 342 348 349 352
107 108 110 111 112 114 118 113 106 106 116 115 123 133 133 124 120 120 122 123 111 99 114 112 106 97 81 60 46 36 27 18 16 8 357 337 338 342 349 349 351 344 343
115 114 116 120 123 124 118 114 112 122 124 127 126 120 114 115 113 110 105 111 105 100 115 118 113 101 85 60 44 34 29 27 22 17 14 4 347 349 348 348 349 345 343
107 110 112 113 113 113 114 118 124 124 125 126 128 121 119 108 104 101 101 100 107 107 127 122 116 103 84 60 45 36 31 27 23 21 17 10 360 353 349 346 349 346 346